Wind_Speed
19 20 21 20 19 19 20 22 22 23 22 22 23 24 26 28 30 30 31 32 33 32 32 30 29 30 31 31 33 34 36 29 27 29 28 31 35 36 34 32 31 30 32 32 33
17 17 18 18 20 20 20 22 22 22 23 25 27 28 29 30 31 33 31 32 32 31 31 32 31 33 34 34 35 36 37 32 31 33 34 33 34 37 36 33 28 30 34 36 35
20 21 22 23 23 22 22 22 23 24 24 24 25 26 27 28 28 30 30 31 29 28 28 30 33 34 35 37 37 40 38 35 35 36 37 37 36 37 36 32 30 33 37 36 34
23 23 22 23 23 23 23 24 25 26 26 27 27 27 28 28 29 28 29 29 30 30 31 31 31 32 34 36 38 40 38 39 39 40 41 39 39 38 38 32 34 35 38 36 36
24 25 24 25 26 25 26 27 30 30 31 31 31 31 30 29 33 32 33 32 32 33 33 33 33 35 35 36 38 38 36 38 39 39 40 41 41 43 36 35 36 38 39 41 39
29 31 31 32 31 30 31 33 33 36 35 36 36 36 34 32 33 35 36 35 36 36 35 35 35 36 37 36 38 38 36 37 38 38 38 39 41 41 34 37 39 40 41 42 43
35 36 37 37 35 35 35 36 35 37 39 39 39 39 38 35 38 39 39 39 40 40 39 38 39 40 41 41 41 42 42 42 39 39 42 43 42 42 41 40 42 43 44 45 45
33 36 38 39 38 37 38 35 34 31 30 33 35 35 36 32 33 34 35 39 42 43 41 41 42 43 43 45 46 46 48 47 44 44 47 48 46 45 43 44 44 45 45 45 44
29 31 33 36 35 36 37 36 33 29 28 27 27 29 27 29 32 33 36 36 33 32 36 37 38 39 40 42 45 45 47 48 49 49 49 52 53 51 52 50 50 49 47 47 46
27 27 28 31 31 30 29 31 33 30 30 32 32 30 30 30 30 30 32 31 32 36 37 36 39 40 39 41 42 43 43 44 46 46 49 52 52 54 55 54 51 49 46 46 47
30 30 31 33 33 32 29 30 35 35 31 34 36 32 32 30 29 32 33 33 35 34 35 38 38 40 41 41 41 42 44 45 44 46 48 48 48 48 49 52 50 48 46 47 50
32 32 32 35 36 36 36 35 35 36 31 35 37 37 36 34 33 34 33 33 35 37 38 38 38 39 39 41 43 45 45 45 46 48 50 51 48 49 48 51 53 54 55 56 56
36 38 41 38 38 39 40 41 39 38 40 36 34 36 38 34 32 31 32 35 35 35 36 36 37 38 39 42 44 44 45 45 47 48 50 53 51 51 51 52 51 50 52 54 54
43 45 48 45 45 45 45 45 44 41 41 42 40 30 27 28 30 31 33 34 35 36 36 36 36 39 40 42 45 44 45 47 48 51 52 54 58 54 52 52 53 54 55 53 53
49 50 49 44 47 47 45 45 45 39 40 39 33 32 30 30 31 33 34 36 37 37 38 40 41 42 41 42 46 47 47 49 51 54 54 53 58 52 52 55 56 55 54 52 51
57 53 47 43 45 43 43 42 39 38 39 37 35 34 33 34 36 39 40 41 42 44 45 46 47 48 48 49 49 51 52 54 56 56 55 50 55 48 50 54 57 56 52 47 46
64 53 48 43 43 42 40 39 38 37 39 39 38 37 38 39 42 43 43 46 49 52 52 51 52 52 52 54 55 56 57 59 60 58 57 53 56 49 48 52 53 54 51 41 38
63 55 48 44 41 40 37 37 37 36 38 39 39 40 42 43 44 46 50 53 52 55 57 59 59 58 58 58 58 59 58 57 60 59 58 56 56 53 51 49 52 51 51 51 52
64 50 49 43 39 37 36 35 36 37 38 40 40 44 46 48 51 56 57 58 58 60 61 63 63 63 61 60 59 57 55 52 48 50 53 55 54 53 51 49 46 48 57 57 55
58 49 46 44 40 39 38 38 39 39 41 43 45 47 50 52 56 57 58 62 64 66 68 67 68 65 64 64 62 59 54 49 51 54 57 58 57 56 58 54 51 52 53 55 57
50 48 45 42 37 37 39 40 43 45 46 48 50 53 54 57 59 62 65 67 67 67 66 66 66 65 64 63 63 62 60 57 57 54 47 50 49 52 54 45 42 38 43 50 40
49 46 44 43 43 43 44 44 46 49 49 52 55 57 57 59 61 63 60 59 57 58 58 60 64 62 61 59 60 59 57 55 56 60 62 60 63 54 43 42 43 46 41 41 44
47 45 44 44 48 50 50 52 54 55 55 56 59 60 59 62 64 59 53 52 53 53 54 56 58 59 60 57 53 53 51 47 42 37 39 41 47 47 46 52 55 57 56 54 55
47 50 48 49 51 55 58 60 60 58 56 59 62 63 66 68 62 56 54 56 54 52 53 57 57 54 51 51 53 50 48 41 31 36 35 40 43 45 51 56 57 60 63 62 59
50 51 54 57 59 60 62 62 61 61 62 62 62 65 66 65 58 56 54 54 51 48 47 49 53 46 44 43 45 48 44 34 37 37 42 41 43 41 47 49 47 42 40 39 40
64 64 63 63 64 63 62 62 63 62 64 63 63 64 63 56 56 54 55 52 51 43 41 40 42 41 40 35 38 42 38 43 44 48 53 48 45 38 37 34 32 30 30 30 29
70 70 69 67 67 65 64 66 66 66 65 64 61 60 55 53 50 50 50 46 44 40 37 37 36 38 39 35 37 38 30 30 36 36 37 28 29 33 33 30 30 31 31 31 32
Wind_Direction
311 312 313 312 311 312 309 304 302 297 291 288 289 288 287 288 289 290 290 291 293 291 285 277 266 263 261 264 267 269 273 276 277 271 264 260 262 266 267 269 268 269 271 267 266
313 312 312 312 311 308 303 302 299 295 292 290 288 284 284 284 287 290 289 289 290 288 283 278 275 269 268 266 266 268 270 279 272 272 270 267 266 268 270 269 270 268 268 263 264
316 317 315 312 309 306 302 298 294 291 290 288 288 287 283 282 284 284 285 283 283 283 282 279 276 272 270 270 271 271 276 274 274 270 268 268 268 267 270 270 264 259 260 265 268
306 305 304 305 303 302 300 297 294 292 288 285 284 281 280 281 282 279 278 279 280 277 276 277 275 275 274 273 272 275 276 275 274 273 271 268 267 269 268 272 266 264 264 262 262
295 293 292 296 294 295 294 291 289 286 284 282 277 276 275 276 276 275 276 275 274 273 275 275 275 276 276 275 275 275 277 277 276 274 275 276 275 272 272 269 265 262 261 262 261
294 294 293 295 296 292 292 291 287 284 281 279 277 277 277 281 276 277 277 276 275 275 277 278 278 277 276 278 277 278 276 275 275 276 275 273 272 274 275 267 264 263 262 262 262
297 297 296 296 296 291 293 292 290 287 283 280 281 283 284 285 284 281 282 282 280 278 277 278 277 277 277 277 277 277 277 275 274 275 272 269 268 272 270 266 265 264 262 261 262
309 304 299 296 296 294 295 293 297 302 298 292 287 288 290 289 287 287 287 285 279 276 277 277 276 276 276 275 276 272 273 275 275 272 271 271 272 270 269 270 268 266 265 265 267
325 327 322 311 306 301 296 289 295 295 299 297 296 296 293 292 288 289 290 291 289 285 284 280 279 280 281 279 275 276 276 274 272 273 273 271 270 271 272 269 268 267 266 267 267
321 325 315 311 312 313 312 300 297 294 293 292 290 288 290 287 281 279 281 280 282 283 281 278 280 283 281 275 279 277 278 275 275 272 270 269 271 271 271 269 266 265 265 265 265
316 315 312 310 308 307 301 296 298 299 294 288 290 288 283 282 276 276 276 275 276 274 274 276 278 278 278 278 278 278 277 277 278 274 273 271 270 269 269 272 270 267 267 266 264
312 312 309 307 305 300 296 293 290 289 278 278 284 285 286 282 279 270 270 270 271 273 274 277 279 278 277 278 277 277 277 278 278 277 277 275 274 272 269 268 268 269 268 267 265
309 311 310 303 300 298 295 294 291 288 285 282 276 278 285 284 278 273 269 272 273 274 275 277 278 278 277 277 277 278 278 277 278 276 276 277 277 275 275 276 275 272 270 268 265
312 315 315 307 302 299 296 297 293 292 291 290 292 292 285 283 277 279 278 279 279 281 283 284 281 280 279 279 278 278 276 277 279 278 279 278 279 279 280 281 279 276 272 269 264
316 314 308 305 299 295 294 293 293 290 290 296 296 296 295 287 286 285 284 283 284 286 285 285 285 283 281 278 276 276 277 275 273 272 273 278 281 284 286 281 278 276 273 269 266
314 315 310 307 302 299 296 295 292 291 291 292 293 295 292 290 289 290 289 289 290 288 288 289 288 286 288 286 282 280 275 272 271 270 271 276 277 280 277 276 278 278 279 274 268
314 314 313 311 304 300 297 293 292 293 295 295 295 294 291 290 291 292 291 289 290 292 292 290 289 288 286 283 281 279 277 277 274 274 274 272 273 276 273 275 277 276 276 272 270
315 309 308 307 304 299 295 295 296 296 295 297 296 294 294 297 296 294 293 291 290 291 290 290 289 287 285 283 281 280 279 278 279 279 276 274 274 277 277 274 277 274 274 276 281
311 302 299 298 297 295 295 295 298 299 299 300 301 301 301 301 298 298 297 296 295 293 290 289 288 288 287 285 283 281 278 276 268 267 269 273 275 278 279 282 277 271 273 275 281
306 296 293 292 292 292 294 299 302 302 302 301 301 303 303 300 299 300 300 299 297 295 295 292 292 290 288 285 282 280 277 272 271 275 277 277 279 282 282 282 275 271 272 275 275
298 291 292 292 295 298 299 300 302 305 305 305 306 303 302 302 301 300 300 299 294 292 292 292 290 290 289 288 285 282 279 275 273 271 273 276 276 281 284 274 265 254 260 272 265
295 293 292 297 298 303 304 304 305 303 303 304 303 302 302 301 303 300 298 295 293 291 289 288 288 288 287 287 285 283 282 278 274 272 271 271 271 274 265 262 259 255 254 251 256
293 289 291 297 303 305 306 305 304 303 303 303 303 304 304 304 305 304 298 295 294 292 290 287 287 288 288 286 283 282 282 283 279 272 267 264 265 266 265 262 260 260 263 262 261
302 294 295 298 301 302 302 302 304 305 306 306 306 305 306 306 303 300 295 296 296 294 293 289 287 286 285 280 282 285 287 289 287 274 274 265 264 263 271 271 273 275 274 275 271
305 302 302 303 302 301 301 302 304 307 308 306 306 306 306 303 300 297 297 295 295 296 293 290 288 287 281 279 275 277 278 259 258 260 271 275 272 272 272 278 280 278 276 275 274
302 302 300 301 300 300 300 302 304 306 306 304 305 307 304 304 300 297 296 297 297 295 292 286 289 287 285 281 278 276 275 262 259 265 277 281 279 276 277 275 272 275 279 281 281
299 298 297 298 297 298 298 299 302 303 304 304 306 306 303 301 298 297 296 296 298 297 293 294 291 286 284 280 275 276 276 271 269 274 275 274 271 272 272 270 275 279 281 282 279
Height
5814 5812 5809 5806 5803 5800 5798 5795 5793 5791 5789 5787 5786 5784 5782 5781 5779 5777 5776 5774 5772 5771 5769 5768 5765 5763 5763 5762 5761 5761 5758 5763 5764 5761 5761 5760 5759 5759 5760 5761 5762 5762 5762 5762 5762
5810 5807 5805 5802 5799 5797 5794 5791 5789 5786 5784 5782 5780 5777 5776 5774 5772 5770 5769 5766 5765 5764 5762 5761 5761 5758 5756 5756 5754 5753 5752 5756 5755 5753 5752 5752 5753 5752 5753 5754 5757 5756 5754 5753 5755
5807 5804 5801 5798 5795 5792 5789 5787 5784 5782 5779 5776 5774 5772 5770 5767 5766 5763 5761 5759 5758 5756 5754 5754 5753 5752 5751 5749 5748 5746 5748 5748 5747 5745 5744 5743 5744 5744 5745 5748 5748 5746 5744 5746 5749
5803 5800 5797 5794 5791 5787 5784 5782 5779 5776 5774 5771 5768 5765 5764 5761 5760 5756 5754 5752 5751 5749 5747 5746 5744 5744 5743 5741 5740 5738 5742 5740 5740 5737 5736 5736 5736 5736 5736 5742 5739 5738 5737 5738 5738
5797 5794 5790 5787 5784 5782 5778 5775 5772 5769 5766 5764 5761 5758 5756 5755 5750 5748 5747 5745 5743 5741 5740 5738 5737 5735 5735 5734 5732 5731 5733 5731 5730 5729 5729 5728 5728 5725 5731 5731 5730 5729 5729 5729 5729
5791 5788 5785 5782 5778 5775 5770 5767 5764 5760 5757 5755 5752 5750 5748 5748 5744 5740 5737 5737 5735 5733 5732 5731 5729 5727 5726 5726 5725 5724 5724 5722 5721 5720 5720 5719 5718 5716 5723 5720 5720 5720 5720 5720 5720
5786 5782 5778 5775 5772 5768 5763 5758 5754 5751 5749 5746 5743 5742 5741 5740 5736 5733 5731 5729 5727 5726 5724 5722 5720 5719 5718 5717 5716 5715 5714 5713 5713 5712 5709 5708 5710 5710 5708 5709 5710 5709 5709 5710 5710
5779 5776 5771 5767 5765 5761 5757 5753 5750 5746 5742 5739 5736 5734 5732 5731 5727 5724 5722 5720 5717 5715 5715 5713 5710 5708 5707 5707 5705 5703 5703 5704 5705 5701 5699 5699 5703 5700 5700 5699 5699 5698 5698 5699 5700
5774 5769 5765 5760 5758 5755 5751 5747 5743 5741 5738 5734 5731 5728 5726 5723 5719 5717 5714 5711 5708 5707 5706 5704 5701 5699 5698 5696 5692 5693 5691 5691 5691 5691 5690 5688 5688 5689 5687 5688 5688 5687 5687 5688 5688
5768 5763 5759 5754 5752 5749 5746 5742 5737 5734 5731 5725 5722 5721 5716 5713 5709 5707 5705 5702 5701 5698 5697 5695 5692 5691 5689 5684 5683 5681 5680 5679 5678 5679 5676 5675 5677 5677 5675 5674 5675 5675 5675 5675 5676
5762 5759 5754 5748 5745 5742 5739 5733 5730 5728 5725 5718 5714 5712 5708 5706 5703 5699 5695 5694 5691 5689 5686 5685 5684 5681 5678 5676 5673 5671 5670 5668 5668 5665 5662 5663 5663 5665 5664 5662 5665 5664 5663 5662 5661
5755 5753 5747 5739 5735 5732 5728 5723 5719 5716 5716 5707 5703 5699 5698 5697 5694 5689 5687 5684 5682 5679 5677 5676 5674 5670 5668 5665 5663 5660 5657 5658 5656 5653 5651 5650 5653 5653 5655 5652 5651 5650 5648 5647 5646
5746 5743 5738 5733 5727 5723 5718 5714 5708 5704 5700 5700 5696 5692 5689 5687 5683 5680 5677 5675 5672 5669 5667 5666 5664 5661 5658 5654 5651 5650 5646 5645 5642 5640 5638 5635 5638 5640 5640 5639 5638 5635 5632 5630 5631
5738 5734 5730 5725 5720 5713 5707 5703 5699 5695 5690 5687 5684 5682 5680 5678 5674 5671 5669 5667 5664 5661 5658 5656 5653 5650 5647 5643 5639 5638 5635 5631 5628 5625 5623 5622 5619 5626 5625 5624 5620 5617 5615 5615 5614
5730 5724 5717 5710 5706 5700 5696 5691 5688 5684 5680 5678 5674 5671 5670 5668 5665 5661 5659 5655 5652 5650 5649 5646 5641 5638 5635 5632 5628 5626 5623 5618 5615 5611 5608 5609 5602 5613 5610 5605 5601 5598 5598 5598 5598
5718 5712 5706 5698 5693 5688 5682 5679 5677 5675 5670 5668 5665 5661 5658 5656 5652 5649 5646 5643 5640 5637 5634 5631 5627 5624 5622 5619 5615 5611 5608 5603 5598 5597 5594 5598 5591 5599 5595 5590 5585 5582 5580 5582 5585
5706 5697 5692 5686 5682 5676 5672 5668 5666 5663 5662 5660 5656 5653 5648 5645 5641 5637 5634 5630 5625 5620 5620 5617 5613 5609 5607 5603 5599 5595 5591 5586 5580 5581 5580 5582 5575 5581 5580 5576 5573 5570 5567 5568 5572
5696 5688 5680 5676 5672 5667 5663 5660 5657 5654 5649 5647 5644 5641 5637 5635 5631 5627 5623 5618 5614 5608 5602 5599 5598 5595 5593 5589 5585 5580 5577 5573 5562 5562 5563 5564 5561 5563 5562 5562 5559 5557 5553 5554 5556
5685 5678 5672 5666 5662 5658 5654 5648 5644 5643 5640 5637 5635 5630 5628 5623 5618 5614 5608 5603 5597 5592 5588 5582 5581 5578 5575 5571 5568 5564 5561 5557 5550 5548 5544 5549 5550 5547 5546 5546 5544 5544 5543 5542 5541
5675 5668 5662 5658 5653 5649 5645 5640 5634 5631 5627 5624 5621 5617 5612 5609 5604 5598 5592 5588 5581 5574 5567 5563 5559 5559 5557 5555 5552 5548 5546 5543 5540 5535 5531 5532 5534 5531 5530 5529 5530 5530 5530 5529 5529
5661 5657 5653 5648 5644 5640 5635 5631 5625 5621 5618 5615 5609 5603 5599 5593 5589 5582 5577 5570 5562 5556 5553 5546 5542 5543 5539 5539 5533 5531 5531 5530 5527 5524 5519 5517 5521 5519 5517 5517 5518 5515 5514 5516 5517
5650 5647 5642 5637 5635 5629 5622 5618 5615 5610 5605 5600 5596 5590 5585 5579 5575 5567 5560 5553 5547 5542 5539 5533 5524 5522 5521 5520 5515 5513 5511 5511 5508 5508 5505 5505 5507 5505 5504 5502 5503 5503 5505 5505 5505
5640 5636 5633 5627 5621 5616 5610 5603 5599 5595 5591 5585 5579 5573 5567 5561 5554 5549 5542 5537 5532 5527 5522 5518 5511 5505 5503 5502 5500 5497 5497 5495 5493 5492 5491 5493 5493 5493 5490 5486 5485 5489 5491 5492 5491
5626 5623 5621 5617 5609 5603 5598 5591 5585 5578 5574 5568 5562 5555 5548 5544 5536 5531 5525 5521 5515 5510 5504 5497 5496 5492 5490 5487 5484 5482 5482 5483 5481 5478 5480 5478 5480 5481 5474 5470 5472 5472 5472 5473 5474
5615 5610 5607 5601 5595 5588 5581 5575 5569 5564 5560 5551 5546 5539 5532 5525 5519 5513 5509 5504 5500 5495 5488 5482 5478 5479 5477 5476 5474 5471 5471 5472 5470 5469 5464 5468 5464 5467 5463 5461 5460 5460 5459 5459 5459
5600 5595 5592 5586 5579 5573 5565 5559 5553 5548 5544 5537 5530 5524 5514 5507 5501 5499 5492 5489 5484 5482 5476 5472 5468 5464 5464 5463 5460 5457 5459 5459 5458 5455 5452 5453 5451 5450 5450 5449 5449 5449 5449 5449 5449
5584 5578 5572 5571 5562 5556 5552 5542 5537 5529 5528 5518 5514 5508 5501 5495 5489 5484 5479 5476 5470 5467 5464 5462 5458 5453 5451 5452 5448 5448 5449 5445 5444 5443 5441 5442 5442 5441 5442 5442 5442 5441 5441 5440 5440